When you browse on this site, cookies collect data to enhance your experience and personalize the content and advertising you see.
Visit our Privacy Policy to learn more. By continuing to use the site, you agree to this use of cookies and data.
  • In Hungary
  • List of Countries
  • For 7 days
  • Water Temperature
  • Satellite Maps
  • Weather Map
  • News
  • Weather Widgets
  • user-avatar
    Login

    Hourly Weather Montalto Uffugo

    Today, 27 June, Thursday

    Time Temperature Precipitation Wind Pressure Humidity
    00:00 +23°C° 0 mm 2 mps 734 mmHg 71%
    01:00 +23°C° 0 mm 2 mps 734 mmHg 72%
    02:00 +23°C° 0 mm 2 mps 734 mmHg 72%
    03:00 +21°C° 0 mm 2 mps 733 mmHg 72%
    04:00 +22°C° 0 mm 1 mps 733 mmHg 72%
    05:00 +24°C° 0 mm 1 mps 733 mmHg 67%
    06:00 +26°C° 0 mm 1 mps 734 mmHg 62%
    07:00 +28°C° 0 mm 1 mps 734 mmHg 57%
    08:00 +29°C° 0 mm 2 mps 734 mmHg 53%
    09:00 +31°C° 0 mm 3 mps 734 mmHg 48%
    10:00 +33°C° 0 mm 3 mps 734 mmHg 43%
    11:00 +33°C° 0 mm 3 mps 734 mmHg 42%
    12:00 +34°C° 0 mm 3 mps 734 mmHg 41%
    13:00 +34°C° 0 mm 3 mps 734 mmHg 40%
    14:00 +34°C° 0 mm 3 mps 734 mmHg 41%
    15:00 +33°C° 0 mm 3 mps 733 mmHg 42%
    16:00 +32°C° 0 mm 2 mps 733 mmHg 43%
    17:00 +30°C° 0 mm 2 mps 732 mmHg 51%
    18:00 +28°C° 0 mm 1 mps 732 mmHg 60%
    19:00 +26°C° 0 mm 1 mps 732 mmHg 68%
    20:00 +25°C° 0 mm 1 mps 732 mmHg 67%
    21:00 +24°C° 0 mm 1 mps 732 mmHg 67%
    22:00 +24°C° 0 mm 2 mps 732 mmHg 66%
    23:00 +23°C° 0 mm 2 mps 732 mmHg 66%

    Tomorrow, 28 June, Friday

    Time Temperature Precipitation Wind Pressure Humidity
    00:00 +23°C° 0 mm 2 mps 732 mmHg 66%
    01:00 +23°C° 0 mm 2 mps 732 mmHg 65%
    02:00 +23°C° 0 mm 2 mps 731 mmHg 67%
    03:00 +21°C° 0 mm 2 mps 731 mmHg 69%
    04:00 +22°C° 0 mm 1 mps 731 mmHg 71%
    05:00 +24°C° 0 mm 1 mps 731 mmHg 65%
    06:00 +26°C° 0 mm 1 mps 731 mmHg 58%
    07:00 +28°C° 0 mm 1 mps 731 mmHg 52%
    08:00 +30°C° 0 mm 1 mps 731 mmHg 48%
    09:00 +31°C° 0 mm 2 mps 731 mmHg 44%
    10:00 +34°C° 0 mm 2 mps 731 mmHg 39%
    11:00 +34°C° 0 mm 2 mps 731 mmHg 39%
    12:00 +35°C° 0 mm 2 mps 731 mmHg 39%
    13:00 +35°C° 0 mm 2 mps 731 mmHg 39%
    14:00 +35°C° 0 mm 2 mps 731 mmHg 42%
    15:00 +34°C° 0 mm 2 mps 731 mmHg 45%
    16:00 +32°C° 0 mm 2 mps 730 mmHg 48%
    17:00 +30°C° 0 mm 2 mps 730 mmHg 56%
    18:00 +28°C° 0 mm 1 mps 730 mmHg 64%
    19:00 +27°C° 0 mm 1 mps 730 mmHg 72%
    20:00 +26°C° 0 mm 1 mps 731 mmHg 70%
    21:00 +25°C° 0 mm 1 mps 731 mmHg 69%
    22:00 +24°C° 0 mm 1 mps 731 mmHg 68%
    23:00 +23°C° 0 mm 1 mps 731 mmHg 67%

    Day after tomorrow, 29 June, Saturday

    Time Temperature Precipitation Wind Pressure Humidity
    00:00 +23°C° 0 mm 1 mps 730 mmHg 65%
    01:00 +22°C° 0 mm 1 mps 730 mmHg 63%
    02:00 +22°C° 0 mm 1 mps 730 mmHg 62%
    03:00 +22°C° 0 mm 1 mps 730 mmHg 60%
    04:00 +20°C° 0 mm 2 mps 730 mmHg 58%
    05:00 +23°C° 0 mm 2 mps 730 mmHg 54%
    06:00 +25°C° 0 mm 2 mps 731 mmHg 49%
    07:00 +27°C° 0 mm 2 mps 731 mmHg 44%
    08:00 +28°C° 0 mm 2 mps 731 mmHg 40%
    09:00 +30°C° 0 mm 2 mps 732 mmHg 35%
    10:00 +31°C° 0 mm 3 mps 732 mmHg 31%
    11:00 +33°C° 0 mm 3 mps 732 mmHg 29%
    12:00 +33°C° 0 mm 3 mps 732 mmHg 28%
    13:00 +34°C° 0 mm 3 mps 732 mmHg 27%
    14:00 +33°C° 0 mm 3 mps 732 mmHg 29%
    15:00 +33°C° 0 mm 3 mps 732 mmHg 32%
    16:00 +31°C° 0 mm 3 mps 732 mmHg 34%
    17:00 +29°C° 0 mm 3 mps 732 mmHg 41%
    18:00 +27°C° 0 mm 2 mps 732 mmHg 47%
    19:00 +25°C° 0 mm 2 mps 732 mmHg 54%
    20:00 +23°C° 0 mm 2 mps 732 mmHg 53%
    21:00 +21°C° 0 mm 2 mps 732 mmHg 53%
    22:00 +20°C° 0 mm 3 mps 732 mmHg 53%
    23:00 +20°C° 0 mm 3 mps 732 mmHg 56%

    30 June, Sunday

    Time Temperature Precipitation Wind Pressure Humidity
    00:00 +19°C° 0 mm 3 mps 732 mmHg 59%
    01:00 +19°C° 0 mm 2 mps 732 mmHg 62%
    02:00 +19°C° 0 mm 3 mps 732 mmHg 60%
    03:00 +18°C° 0 mm 3 mps 732 mmHg 57%
    04:00 +18°C° 0 mm 3 mps 732 mmHg 55%
    05:00 +20°C° 0 mm 3 mps 732 mmHg 51%
    06:00 +23°C° 0 mm 2 mps 733 mmHg 47%
    07:00 +25°C° 0 mm 2 mps 733 mmHg 43%
    08:00 +28°C° 0 mm 2 mps 734 mmHg 39%
    09:00 +30°C° 0 mm 2 mps 734 mmHg 36%
    10:00 +32°C° 0 mm 2 mps 734 mmHg 32%
    11:00 +32°C° 0 mm 2 mps 734 mmHg 31%
    12:00 +34°C° 0 mm 2 mps 734 mmHg 31%
    13:00 +34°C° 0 mm 3 mps 734 mmHg 30%
    14:00 +34°C° 0 mm 2 mps 734 mmHg 31%
    15:00 +34°C° 0 mm 2 mps 734 mmHg 32%
    16:00 +32°C° 0 mm 2 mps 734 mmHg 33%
    17:00 +30°C° 0 mm 2 mps 734 mmHg 40%
    18:00 +28°C° 0 mm 2 mps 734 mmHg 48%
    19:00 +26°C° 0 mm 1 mps 734 mmHg 55%
    20:00 +24°C° 0 mm 1 mps 734 mmHg 57%
    21:00 +23°C° 0 mm 1 mps 734 mmHg 59%
    22:00 +22°C° 0 mm 1 mps 735 mmHg 61%
    23:00 +22°C° 0 mm 1 mps 734 mmHg 61%

    1 July, Monday

    Time Temperature Precipitation Wind Pressure Humidity
    00:00 +22°C° 0 mm 1 mps 734 mmHg 61%
    01:00 +21°C° 0 mm 1 mps 734 mmHg 60%
    02:00 +21°C° 0 mm 1 mps 734 mmHg 60%
    03:00 +21°C° 0 mm 1 mps 734 mmHg 60%
    04:00 +21°C° 0 mm 1 mps 734 mmHg 59%
    05:00 +23°C° 0 mm 1 mps 734 mmHg 55%
    06:00 +25°C° 0 mm 1 mps 734 mmHg 50%
    07:00 +27°C° 0 mm 1 mps 735 mmHg 45%
    08:00 +28°C° 0 mm 1 mps 735 mmHg 40%
    09:00 +30°C° 0 mm 1 mps 735 mmHg 35%
    10:00 +32°C° 0 mm 2 mps 735 mmHg 30%
    11:00 +34°C° 0 mm 2 mps 735 mmHg 30%
    12:00 +34°C° 0 mm 2 mps 735 mmHg 30%
    13:00 +34°C° 0 mm 2 mps 735 mmHg 31%
    14:00 +34°C° 0 mm 2 mps 734 mmHg 33%
    15:00 +32°C° 0 mm 2 mps 734 mmHg 34%
    16:00 +32°C° 0 mm 2 mps 734 mmHg 36%
    17:00 +30°C° 0 mm 1 mps 734 mmHg 44%
    18:00 +27°C° 0 mm 1 mps 733 mmHg 52%
    19:00 +23°C° 0 mm 0 mps 733 mmHg 60%
    20:00 +24°C° 0 mm 1 mps 733 mmHg 60%
    21:00 +23°C° 0 mm 1 mps 733 mmHg 60%
    22:00 +22°C° 0 mm 1 mps 733 mmHg 60%
    23:00 +22°C° 0 mm 1 mps 733 mmHg 57%

    2 July, Tuesday

    Time Temperature Precipitation Wind Pressure Humidity
    00:00 +22°C° 0 mm 1 mps 733 mmHg 55%
    01:00 +22°C° 0 mm 1 mps 732 mmHg 52%
    02:00 +22°C° 0 mm 1 mps 732 mmHg 54%
    03:00 +21°C° 0 mm 1 mps 732 mmHg 55%
    04:00 +21°C° 0 mm 1 mps 732 mmHg 56%
    05:00 +23°C° 0 mm 1 mps 732 mmHg 53%
    06:00 +25°C° 0 mm 1 mps 732 mmHg 51%
    07:00 +27°C° 0 mm 1 mps 733 mmHg 48%
    08:00 +29°C° 0 mm 1 mps 733 mmHg 44%
    09:00 +31°C° 0 mm 1 mps 733 mmHg 40%
    10:00 +32°C° 0 mm 2 mps 733 mmHg 37%
    11:00 +32°C° 0 mm 2 mps 732 mmHg 38%
    12:00 +34°C° 0 mm 2 mps 732 mmHg 40%
    13:00 +34°C° 0 mm 2 mps 732 mmHg 41%
    14:00 +32°C° 0 mm 2 mps 732 mmHg 43%
    15:00 +32°C° 0 mm 2 mps 732 mmHg 44%
    16:00 +31°C° 0 mm 2 mps 731 mmHg 46%
    17:00 +29°C° 0 mm 2 mps 731 mmHg 56%
    18:00 +27°C° 0 mm 2 mps 731 mmHg 65%
    19:00 +25°C° 0 mm 1 mps 731 mmHg 74%
    20:00 +24°C° 0 mm 1 mps 731 mmHg 76%
    21:00 +23°C° 0 mm 1 mps 731 mmHg 77%
    22:00 +22°C° 0 mm 1 mps 731 mmHg 78%
    23:00 +22°C° 0 mm 1 mps 731 mmHg 78%
    Show more